FW2442 Weather Reports


time (UTC)temp
C
wind
direction
speed
KPH
gust
KPH
rain 1hr
cm
rain 24hr
cm
rain mn
cm
humidity
%
barometer
mb
20260507065518 19 134 4.8 11.3 0.00 0.00 0.00 53 1015.9
20260507064518 18 133 4.8 9.7 0.00 0.00 0.00 53 1015.9
20260507063538 18 120 4.8 11.3 0.00 0.00 0.00 54 1015.9
20260507062539 18 136 4.8 11.3 0.00 0.00 0.00 54 1016.0
20260507061518 17 147 3.2 6.4 0.00 0.00 0.00 56 1016.0
20260507060519 17 122 3.2 8.0 0.00 0.00 0.00 58 1016.0
20260507055518 17 141 4.8 9.7 0.00 0.00 0.00 57 1016.1
20260507054537 16 130 3.2 4.8 0.00 0.00 0.00 60 1016.1
20260507053519 16 128 3.2 4.8 0.00 0.00 0.00 60 1016.1
20260507052520 16 126 1.6 3.2 0.00 0.00 0.00 62 1016.2
20260507051518 15 120 3.2 4.8 0.00 0.00 0.00 62 1016.0
20260507050539 15 125 3.2 4.8 0.00 0.00 0.00 62 1016.0
20260507045519 15 137 1.6 3.2 0.00 0.00 0.00 63 1016.0
20260507044519 14 129 1.6 3.2 0.00 0.00 0.00 65 1015.9
20260507043518 13 125 1.6 4.8 0.00 0.00 0.00 66 1015.8
20260507042523 13 118 1.6 4.8 0.00 0.00 0.00 65 1015.7
20260507041540 13 120 1.6 4.8 0.00 0.00 0.00 66 1015.6
20260507040541 12 113 1.6 3.2 0.00 0.00 0.00 67 1015.7
20260507035518 12 114 1.6 3.2 0.00 0.00 0.00 67 1015.6
20260507034541 12 104 1.6 3.2 0.00 0.00 0.00 67 1015.6
20260507033525 12 110 3.2 3.2 0.00 0.00 0.00 66 1015.6
20260507032519 12 110 1.6 6.4 0.00 0.00 0.00 65 1015.5
20260507031519 12 111 3.2 4.8 0.00 0.00 0.00 63 1015.5
20260507030521 13 119 1.6 3.2 0.00 0.00 0.00 60 1015.4
20260507025539 13 116 0.0 3.2 0.00 0.00 0.00 60 1015.4
20260507024519 13 153 1.6 3.2 0.00 0.00 0.00 59 1015.3
20260507023518 13 150 3.2 4.8 0.00 0.00 0.00 58 1015.2
20260507022518 13 157 1.6 3.2 0.00 0.00 0.00 57 1015.2
20260507021519 13 133 0.0 1.6 0.00 0.00 0.00 57 1015.2
20260507020539 13 160 1.6 3.2 0.00 0.00 0.00 57 1015.2
20260507015518 14 165 1.6 3.2 0.00 0.00 0.00 56 1015.1
20260507014539 14 174 1.6 3.2 0.00 0.00 0.00 56 1015.1
20260507013520 14 170 3.2 4.8 0.00 0.00 0.00 56 1015.1
20260507012518 14 171 3.2 9.7 0.00 0.00 0.00 56 1015.1
20260507011538 14 160 3.2 9.7 0.00 0.00 0.00 57 1015.1
20260507010518 14 147 3.2 3.2 0.00 0.00 0.00 57 1015.1
20260507005558 14 139 1.6 3.2 0.00 0.00 0.00 57 1015.2
20260507004524 15 153 3.2 4.8 0.00 0.00 0.00 56 1015.1
20260507003518 15 154 3.2 11.3 0.00 0.00 0.00 55 1015.1
20260507002520 15 157 3.2 8.0 0.00 0.00 0.00 54 1015.1
20260507001519 15 179 4.8 9.7 0.00 0.00 0.00 54 1015.1
20260507000519 15 174 4.8 9.7 0.00 0.00 0.00 54 1015.1
20260506235519 15 159 6.4 14.5 0.00 0.00 0.00 53 1015.1
20260506234520 15 162 6.4 14.5 0.00 0.00 0.00 53 1015.1
20260506233518 15 169 6.4 14.5 0.00 0.00 0.00 54 1015.1
20260506232518 16 167 8.0 19.3 0.00 0.00 0.00 54 1015.0
20260506231519 16 157 6.4 16.1 0.00 0.00 0.00 54 1015.1
20260506230538 16 165 8.0 19.3 0.00 0.00 0.00 55 1015.1
20260506225517 16 174 9.7 22.5 0.00 0.00 0.00 56 1015.0
20260506224519 16 165 8.0 12.9 0.00 0.00 0.00 57 1015.0
20260506223520 16 168 9.7 20.9 0.00 0.00 0.00 58 1015.1
20260506222518 16 172 9.7 17.7 0.00 0.00 0.00 58 1015.1
20260506221518 16 168 11.3 22.5 0.00 0.00 0.00 59 1015.1
20260506220518 16 178 11.3 22.5 0.00 0.00 0.00 59 1015.0
20260506215538 16 169 11.3 24.1 0.00 0.00 0.00 59 1014.9
20260506214518 16 167 14.5 27.4 0.00 0.00 0.00 59 1014.9
20260506213518 17 161 16.1 29.0 0.00 0.00 0.00 58 1014.8
20260506212518 17 157 16.1 29.0 0.00 0.00 0.00 58 1014.7
20260506211529 17 166 16.1 24.1 0.00 0.00 0.00 57 1014.7
20260506210539 17 174 14.5 27.4 0.00 0.00 0.00 57 1014.6
20260506205518 17 158 11.3 22.5 0.00 0.00 0.00 56 1014.7
20260506204540 17 163 9.7 20.9 0.00 0.00 0.00 56 1014.6
20260506203518 18 156 6.4 22.5 0.00 0.00 0.00 55 1014.6
20260506202518 18 159 4.8 14.5 0.00 0.00 0.00 54 1014.4
20260506201540 18 155 6.4 22.5 0.00 0.00 0.00 54 1014.5
20260506200540 18 163 4.8 11.3 0.00 0.00 0.00 53 1014.4
20260506195519 18 162 6.4 19.3 0.00 0.00 0.00 53 1014.3
20260506194519 18 148 6.4 12.9 0.00 0.00 0.00 53 1014.2
20260506193520 18 154 4.8 16.1 0.00 0.00 0.00 53 1014.1
20260506192520 19 154 6.4 17.7 0.00 0.00 0.00 52 1014.2
20260506191522 19 162 6.4 16.1 0.00 0.00 0.00 51 1014.0
20260506190519 20 153 8.0 19.3 0.00 0.00 0.00 50 1014.0
20260506185539 20 166 11.3 25.7 0.00 0.00 0.00 50 1013.8
20260506184520 20 170 6.4 17.7 0.00 0.00 0.00 49 1013.6
20260506183520 20 156 9.7 17.7 0.00 0.00 0.00 49 1013.5
20260506182519 20 160 8.0 20.9 0.00 0.00 0.00 49 1013.4
20260506181520 20 166 4.8 12.9 0.00 0.00 0.00 48 1013.3
20260506180519 20 159 6.4 12.9 0.00 0.00 0.00 48 1013.2
20260506175518 21 169 4.8 14.5 0.00 0.00 0.00 48 1013.1
20260506174517 21 151 3.2 4.8 0.00 0.00 0.00 47 1012.9
20260506173518 21 158 3.2 6.4 0.00 0.00 0.00 46 1012.9
20260506172518 22 182 1.6 8.0 0.00 0.00 0.00 45 1012.8
20260506171520 22 174 4.8 12.9 0.00 0.00 0.00 44 1012.7
20260506170518 22 169 4.8 11.3 0.00 0.00 0.00 42 1012.7
20260506165522 23 169 8.0 17.7 0.00 0.00 0.00 42 1012.6
20260506164520 23 182 8.0 16.1 0.00 0.00 0.00 40 1012.5
20260506163519 24 178 9.7 17.7 0.00 0.00 0.00 39 1012.3
20260506162519 24 178 12.9 20.9 0.00 0.00 0.00 39 1012.5
20260506161519 25 158 6.4 17.7 0.00 0.00 0.00 39 1012.3
20260506160520 25 160 4.8 12.9 0.00 0.00 0.00 38 1012.3
20260506155518 25 154 6.4 17.7 0.00 0.00 0.00 38 1012.2
20260506154519 26 163 4.8 11.3 0.00 0.00 0.00 37 1012.2
20260506153519 26 136 3.2 9.7 0.00 0.00 0.00 36 1012.2
20260506152520 26 145 3.2 8.0 0.00 0.00 0.00 36 1012.1
20260506151520 26 159 3.2 12.9 0.00 0.00 0.00 37 1012.3
20260506150519 26 174 9.7 22.5 0.00 0.00 0.00 36 1012.3
20260506145519 26 172 6.4 14.5 0.00 0.00 0.00 35 1012.3
20260506143520 26 171 11.3 20.9 0.00 0.00 0.00 35 1012.5
20260506142519 27 186 11.3 19.3 0.00 0.00 0.00 34 1012.3
20260506141520 27 167 4.8 14.5 0.00 0.00 0.00 35 1012.4
20260506140519 27 184 6.4 12.9 0.00 0.00 0.00 35 1012.3
20260506135539 27 163 6.4 16.1 0.00 0.00 0.00 35 1012.4
20260506134520 27 180 6.4 20.9 0.00 0.00 0.00 34 1012.4
20260506133519 27 174 6.4 14.5 0.00 0.00 0.00 34 1012.4
20260506132522 27 172 4.8 9.7 0.00 0.00 0.00 34 1012.4
20260506131519 27 174 4.8 11.3 0.00 0.00 0.00 34 1012.5
20260506130519 27 186 6.4 19.3 0.00 0.00 0.00 33 1012.5
20260506125519 27 172 6.4 17.7 0.00 0.00 0.00 33 1012.6
20260506124520 27 189 4.8 14.5 0.00 0.00 0.00 32 1012.7
20260506123521 27 173 9.7 19.3 0.00 0.00 0.00 33 1012.8
20260506122603 27 192 4.8 12.9 0.00 0.00 0.00 33 1012.9
20260506121527 27 185 9.7 20.9 0.00 0.00 0.00 32 1013.0
20260506120522 27 140 3.2 8.0 0.00 0.00 0.00 33 1013.0
20260506115542 27 174 8.0 16.1 0.00 0.00 0.00 31 1013.2
20260506114520 27 177 4.8 12.9 0.00 0.00 0.00 30 1013.3
20260506113522 27 166 3.2 8.0 0.00 0.00 0.00 31 1013.3
20260506112519 27 132 6.4 14.5 0.00 0.00 0.00 32 1013.3
20260506111519 27 171 8.0 14.5 0.00 0.00 0.00 34 1013.4
20260506110539 26 191 9.7 17.7 0.00 0.00 0.00 34 1013.5
20260506105521 26 147 6.4 12.9 0.00 0.00 0.00 35 1013.5
20260506104523 26 134 4.8 11.3 0.00 0.00 0.00 35 1013.5
20260506103522 26 160 4.8 12.9 0.00 0.00 0.00 36 1013.6
20260506102524 26 187 4.8 14.5 0.00 0.00 0.00 37 1013.7
20260506101523 26 153 3.2 6.4 0.00 0.00 0.00 37 1013.7
20260506100521 26 163 4.8 12.9 0.00 0.00 0.00 37 1013.8
20260506095523 25 169 3.2 4.8 0.00 0.00 0.00 38 1013.9
20260506094520 25 121 4.8 11.3 0.00 0.00 0.00 39 1014.0
20260506093522 25 181 6.4 14.5 0.00 0.00 0.00 40 1014.1
20260506092520 25 187 6.4 14.5 0.00 0.00 0.00 39 1014.1
20260506091519 25 152 1.6 4.8 0.00 0.00 0.00 41 1014.1
20260506090522 24 164 3.2 11.3 0.00 0.00 0.00 41 1014.2
20260506085522 23 145 4.8 8.0 0.00 0.00 0.00 43 1014.1
20260506084520 23 128 1.6 3.2 0.00 0.00 0.00 43 1014.2
20260506083521 22 151 4.8 9.7 0.00 0.00 0.00 45 1014.2
20260506082522 22 126 1.6 3.2 0.00 0.00 0.00 45 1014.2
20260506081540 21 138 4.8 11.3 0.00 0.00 0.00 47 1014.3
20260506080525 21 144 4.8 11.3 0.00 0.00 0.00 47 1014.2
20260506073521 20 168 1.6 6.4 0.00 0.00 0.00 50 1014.4
20260506072520 20 173 0.0 6.4 0.00 0.00 0.00 50 1014.4
20260506071526 19 179 0.0 1.6 0.00 0.00 0.00 50 1014.4
20260506070545 18 124 1.6 9.7 0.00 0.00 0.00 52 1014.4